TimePST,TemperatureF,Dew PointF,Humidity,Sea Level PressureIn,VisibilityMPH,Wind Direction,Wind SpeedMPH,Gust SpeedMPH,PrecipitationIn,Events,Conditions,WindDirDegrees,DateUTC
12:56 AM,55.9,22.1,27,29.96,10.0,SW,9.2,-,N/A,,Clear,230,2014-02-18 08:56:00
1:56 AM,55.9,23.0,28,29.96,10.0,SW,11.5,-,N/A,,Clear,230,2014-02-18 09:56:00
2:56 AM,54.9,23.0,29,29.94,10.0,SSW,6.9,-,N/A,,Clear,200,2014-02-18 10:56:00
3:56 AM,54.0,22.1,29,29.97,10.0,SSW,12.7,-,N/A,,Clear,210,2014-02-18 11:56:00
4:56 AM,50.9,21.0,31,29.99,10.0,SW,8.1,-,N/A,,Clear,220,2014-02-18 12:56:00
5:56 AM,47.8,20.1,33,30.01,10.0,SSE,6.9,-,N/A,,Clear,150,2014-02-18 13:56:00
6:56 AM,48.9,21.0,33,30.03,10.0,South,5.8,-,N/A,,Clear,170,2014-02-18 14:56:00
7:56 AM,54.9,22.1,28,30.04,10.0,South,8.1,-,N/A,,Clear,190,2014-02-18 15:56:00
8:56 AM,61.9,21.0,21,30.04,10.0,SSW,6.9,-,N/A,,Clear,200,2014-02-18 16:56:00
9:56 AM,68.0,20.1,16,30.04,10.0,Calm,Calm,-,N/A,,Clear,0,2014-02-18 17:56:00
10:56 AM,72.0,15.1,11,30.04,10.0,Calm,Calm,-,N/A,,Clear,0,2014-02-18 18:56:00
11:56 AM,70.9,15.1,12,30.02,10.0,Variable,5.8,-,N/A,,Clear,0,2014-02-18 19:56:00
12:56 PM,72.0,13.1,10,30.00,10.0,Variable,6.9,-,N/A,,Clear,0,2014-02-18 20:56:00
1:56 PM,73.9,13.1,10,29.97,10.0,Calm,Calm,-,N/A,,Clear,0,2014-02-18 21:56:00
2:56 PM,73.9,14.0,10,29.96,10.0,Calm,Calm,-,N/A,,Clear,0,2014-02-18 22:56:00
3:56 PM,74.8,11.1,9,29.95,10.0,Calm,Calm,-,N/A,,Clear,0,2014-02-18 23:56:00
4:56 PM,72.9,10.0,9,29.95,10.0,Calm,Calm,-,N/A,,Clear,0,2014-02-19 00:56:00
5:56 PM,66.9,17.1,15,29.97,10.0,Calm,Calm,-,N/A,,Clear,0,2014-02-19 01:56:00
6:56 PM,63.9,22.1,20,29.96,10.0,Calm,Calm,-,N/A,,Clear,0,2014-02-19 02:56:00
7:56 PM,61.0,17.1,18,29.97,10.0,Calm,Calm,-,N/A,,Clear,0,2014-02-19 03:56:00
8:56 PM,56.8,17.1,21,29.97,10.0,South,8.1,-,N/A,,Clear,190,2014-02-19 04:56:00
9:56 PM,57.9,14.0,18,29.95,10.0,SSW,8.1,-,N/A,,Clear,200,2014-02-19 05:56:00
10:56 PM,59.9,12.0,15,29.93,10.0,SSW,11.5,-,N/A,,Clear,210,2014-02-19 06:56:00
11:56 PM,55.9,13.1,18,29.93,10.0,South,10.4,-,N/A,,Clear,190,2014-02-19 07:56:00